Year,Month,Day,Hour,Minute,Value (Times are PST for temperature in C)
2018,07,15,00,00,23.10
2018,07,15,00,01,23.20
2018,07,15,00,02,23.20
2018,07,15,00,03,23.30
2018,07,15,00,04,23.30
2018,07,15,00,05,23.30
2018,07,15,00,06,23.40
2018,07,15,00,07,23.40
2018,07,15,00,08,23.40
2018,07,15,00,09,23.40
2018,07,15,00,10,23.50
2018,07,15,00,11,23.50
2018,07,15,00,12,23.50
2018,07,15,00,13,23.50
2018,07,15,00,14,23.50
2018,07,15,00,15,23.50
2018,07,15,00,16,23.50
2018,07,15,00,17,23.40
2018,07,15,00,18,23.40
2018,07,15,00,19,23.40
2018,07,15,00,20,23.40
2018,07,15,00,21,23.40
2018,07,15,00,22,23.40
2018,07,15,00,23,23.30
2018,07,15,00,24,23.30
2018,07,15,00,25,23.30
2018,07,15,00,26,23.30
2018,07,15,00,27,23.30
2018,07,15,00,28,23.20
2018,07,15,00,29,23.20
2018,07,15,00,30,23.20
2018,07,15,00,31,23.20
2018,07,15,00,32,23.20
2018,07,15,00,33,23.20
2018,07,15,00,34,23.10
2018,07,15,00,35,23.10
2018,07,15,00,36,23.20
2018,07,15,00,37,23.20
2018,07,15,00,38,23.20
2018,07,15,00,39,23.20
2018,07,15,00,40,23.30
2018,07,15,00,41,23.30
2018,07,15,00,42,23.30
2018,07,15,00,43,23.30
2018,07,15,00,44,23.40
2018,07,15,00,45,23.40
2018,07,15,00,46,23.40
2018,07,15,00,47,23.50
2018,07,15,00,48,23.50
2018,07,15,00,49,23.60
2018,07,15,00,50,23.60
2018,07,15,00,51,23.60
2018,07,15,00,52,23.70
2018,07,15,00,53,23.70
2018,07,15,00,54,23.70
2018,07,15,00,55,23.70
2018,07,15,00,56,23.70
2018,07,15,00,57,23.70
2018,07,15,00,58,23.80
2018,07,15,00,59,23.80
2018,07,15,01,00,23.80
2018,07,15,01,01,23.80
2018,07,15,01,02,23.80
2018,07,15,01,03,23.80
2018,07,15,01,04,23.90
2018,07,15,01,05,23.90
2018,07,15,01,06,24.00
2018,07,15,01,07,24.00
2018,07,15,01,08,24.00
2018,07,15,01,09,24.00
2018,07,15,01,10,24.10
2018,07,15,01,11,24.10
2018,07,15,01,12,24.10
2018,07,15,01,13,24.10
2018,07,15,01,14,24.10
2018,07,15,01,15,24.10
2018,07,15,01,16,24.10
2018,07,15,01,17,24.10
2018,07,15,01,18,24.10
2018,07,15,01,19,24.10
2018,07,15,01,20,24.10
2018,07,15,01,21,24.10
2018,07,15,01,22,24.10
2018,07,15,01,23,24.10
2018,07,15,01,24,24.00
2018,07,15,01,25,24.00
2018,07,15,01,26,24.00
2018,07,15,01,27,23.90
2018,07,15,01,28,24.00
2018,07,15,01,29,24.00
2018,07,15,01,30,24.00
2018,07,15,01,31,24.00
2018,07,15,01,32,24.10
2018,07,15,01,33,24.20
2018,07,15,01,34,24.20
2018,07,15,01,35,24.20
2018,07,15,01,36,24.20
2018,07,15,01,37,24.20
2018,07,15,01,38,24.20
2018,07,15,01,39,24.20
2018,07,15,01,40,24.20
2018,07,15,01,41,24.20
2018,07,15,01,42,24.10
2018,07,15,01,43,24.10
2018,07,15,01,44,24.10
2018,07,15,01,45,24.10
2018,07,15,01,46,24.10
2018,07,15,01,47,24.10
2018,07,15,01,48,24.10
2018,07,15,01,49,24.10
2018,07,15,01,50,24.10
2018,07,15,01,51,24.10
2018,07,15,01,52,24.10
2018,07,15,01,53,24.00
2018,07,15,01,54,24.00
2018,07,15,01,55,24.00
2018,07,15,01,56,23.90
2018,07,15,01,57,23.90
2018,07,15,01,58,23.90
2018,07,15,01,59,23.90
2018,07,15,02,00,23.90
2018,07,15,02,01,23.90
2018,07,15,02,02,23.90
2018,07,15,02,03,23.90
2018,07,15,02,04,23.90
2018,07,15,02,05,23.90
2018,07,15,02,06,23.90
2018,07,15,02,07,23.90
2018,07,15,02,08,23.90
2018,07,15,02,09,23.80
2018,07,15,02,10,23.80
2018,07,15,02,11,23.80
2018,07,15,02,12,23.80
2018,07,15,02,13,23.80
2018,07,15,02,14,23.80
2018,07,15,02,15,23.80
2018,07,15,02,16,23.90
2018,07,15,02,17,23.80
2018,07,15,02,18,23.80
2018,07,15,02,19,23.80
2018,07,15,02,20,23.80
2018,07,15,02,21,23.80
2018,07,15,02,22,23.80
2018,07,15,02,23,23.80
2018,07,15,02,24,23.70
2018,07,15,02,25,23.70
2018,07,15,02,26,23.70
2018,07,15,02,27,23.60
2018,07,15,02,28,23.60
2018,07,15,02,29,23.60
2018,07,15,02,30,23.60
2018,07,15,02,31,23.60
2018,07,15,02,32,23.60
2018,07,15,02,33,23.50
2018,07,15,02,34,23.40
2018,07,15,02,35,23.40
2018,07,15,02,36,23.40
2018,07,15,02,37,23.30
2018,07,15,02,38,23.30
2018,07,15,02,39,23.30
2018,07,15,02,40,23.30
2018,07,15,02,41,23.30
2018,07,15,02,42,23.30
2018,07,15,02,43,23.30
2018,07,15,02,44,23.30
2018,07,15,02,45,23.30
2018,07,15,02,46,23.30
2018,07,15,02,47,23.30
2018,07,15,02,48,23.30
2018,07,15,02,49,23.30
2018,07,15,02,50,23.30
2018,07,15,02,51,23.30
2018,07,15,02,52,23.30
2018,07,15,02,53,23.30
2018,07,15,02,54,23.30
2018,07,15,02,55,23.30
2018,07,15,02,56,23.30
2018,07,15,02,57,23.30
2018,07,15,02,58,23.30
2018,07,15,02,59,23.30
2018,07,15,03,00,23.30
2018,07,15,03,01,23.30
2018,07,15,03,02,23.30
2018,07,15,03,03,23.20
2018,07,15,03,04,23.20
2018,07,15,03,05,23.20
2018,07,15,03,06,23.20
2018,07,15,03,07,23.20
2018,07,15,03,08,23.20
2018,07,15,03,09,23.20
2018,07,15,03,10,23.20
2018,07,15,03,11,23.20
2018,07,15,03,12,23.20
2018,07,15,03,13,23.10
2018,07,15,03,14,23.10
2018,07,15,03,15,23.10
2018,07,15,03,16,23.10
2018,07,15,03,17,23.10
2018,07,15,03,18,23.10
2018,07,15,03,19,23.10
2018,07,15,03,20,23.10
2018,07,15,03,21,23.10
2018,07,15,03,22,23.20
2018,07,15,03,23,23.20
2018,07,15,03,24,23.20
2018,07,15,03,25,23.10
2018,07,15,03,26,23.10
2018,07,15,03,27,23.10
2018,07,15,03,28,23.10
2018,07,15,03,29,23.00
2018,07,15,03,30,23.00
2018,07,15,03,31,23.00
2018,07,15,03,32,22.90
2018,07,15,03,33,22.90
2018,07,15,03,34,22.90
2018,07,15,03,35,22.80
2018,07,15,03,36,22.80
2018,07,15,03,37,22.80
2018,07,15,03,38,22.70
2018,07,15,03,39,22.60
2018,07,15,03,40,22.50
2018,07,15,03,41,22.40
2018,07,15,03,42,22.30
2018,07,15,03,43,22.10
2018,07,15,03,44,22.00
2018,07,15,03,45,21.80
2018,07,15,03,46,21.70
2018,07,15,03,47,21.60
2018,07,15,03,48,21.50
2018,07,15,03,49,21.40
2018,07,15,03,50,21.40
2018,07,15,03,51,21.20
2018,07,15,03,52,21.10
2018,07,15,03,53,21.10
2018,07,15,03,54,21.00
2018,07,15,03,55,21.00
2018,07,15,03,56,21.00
2018,07,15,03,57,21.00
2018,07,15,03,58,21.00
2018,07,15,03,59,21.00
2018,07,15,04,00,21.00
2018,07,15,04,01,21.00
2018,07,15,04,02,21.00
2018,07,15,04,03,21.00
2018,07,15,04,04,21.00
2018,07,15,04,05,21.00
2018,07,15,04,06,21.00
2018,07,15,04,07,21.10
2018,07,15,04,08,21.10
2018,07,15,04,09,21.10
2018,07,15,04,10,21.10
2018,07,15,04,11,21.10
2018,07,15,04,12,21.10
2018,07,15,04,13,21.10
2018,07,15,04,14,21.00
2018,07,15,04,15,21.00
2018,07,15,04,16,21.00
2018,07,15,04,17,21.00
2018,07,15,04,18,21.00
2018,07,15,04,19,21.00
2018,07,15,04,20,21.00
2018,07,15,04,21,21.00
2018,07,15,04,22,20.90
2018,07,15,04,23,20.90
2018,07,15,04,24,20.90
2018,07,15,04,25,20.90
2018,07,15,04,26,20.90
2018,07,15,04,27,20.90
2018,07,15,04,28,20.90
2018,07,15,04,29,20.90
2018,07,15,04,30,20.90
2018,07,15,04,31,20.90
2018,07,15,04,32,20.80
2018,07,15,04,33,20.80
2018,07,15,04,34,20.70
2018,07,15,04,35,20.70
2018,07,15,04,36,20.70
2018,07,15,04,37,20.70
2018,07,15,04,38,20.60
2018,07,15,04,39,20.60
2018,07,15,04,40,20.60
2018,07,15,04,41,20.60
2018,07,15,04,42,20.60
2018,07,15,04,43,20.60
2018,07,15,04,44,20.60
2018,07,15,04,45,20.60
2018,07,15,04,46,20.60
2018,07,15,04,47,20.50
2018,07,15,04,48,20.50
2018,07,15,04,49,20.40
2018,07,15,04,50,20.40
2018,07,15,04,51,20.40
2018,07,15,04,52,20.40
2018,07,15,04,53,20.40
2018,07,15,04,54,20.40
2018,07,15,04,55,20.40
2018,07,15,04,56,20.40
2018,07,15,04,57,20.50
2018,07,15,04,58,20.60
2018,07,15,04,59,20.60
2018,07,15,05,00,20.70
2018,07,15,05,01,20.70
2018,07,15,05,02,20.70
2018,07,15,05,03,20.80
2018,07,15,05,04,20.90
2018,07,15,05,05,21.00
2018,07,15,05,06,21.10
2018,07,15,05,07,21.10
2018,07,15,05,08,21.20
2018,07,15,05,09,21.30
2018,07,15,05,10,21.30
2018,07,15,05,11,21.40
2018,07,15,05,12,21.40
2018,07,15,05,13,21.40
2018,07,15,05,14,21.40
2018,07,15,05,15,21.40
2018,07,15,05,16,21.30
2018,07,15,05,17,21.30
2018,07,15,05,18,21.30
2018,07,15,05,19,21.20
2018,07,15,05,20,21.20
2018,07,15,05,21,21.20
2018,07,15,05,22,21.20
2018,07,15,05,23,21.20
2018,07,15,05,24,21.20
2018,07,15,05,25,21.10
2018,07,15,05,26,21.10
2018,07,15,05,27,21.10
2018,07,15,05,28,21.10
2018,07,15,05,29,21.10
2018,07,15,05,30,21.10
2018,07,15,05,31,21.10
2018,07,15,05,32,21.10
2018,07,15,05,33,21.10
2018,07,15,05,34,21.10
2018,07,15,05,35,21.10
2018,07,15,05,36,21.10
2018,07,15,05,37,21.10
2018,07,15,05,38,21.00
2018,07,15,05,39,21.00
2018,07,15,05,40,20.90
2018,07,15,05,41,20.80
2018,07,15,05,42,20.80
2018,07,15,05,43,20.70
2018,07,15,05,44,20.70
2018,07,15,05,45,20.70
2018,07,15,05,46,20.60
2018,07,15,05,47,20.60
2018,07,15,05,48,20.50
2018,07,15,05,49,20.50
2018,07,15,05,50,20.40
2018,07,15,05,51,20.40
2018,07,15,05,52,20.30
2018,07,15,05,53,20.30
2018,07,15,05,54,20.30
2018,07,15,05,55,20.40
2018,07,15,05,56,20.40
2018,07,15,05,57,20.40
2018,07,15,05,58,20.40
2018,07,15,05,59,20.40
2018,07,15,06,00,20.40
2018,07,15,06,01,20.40
2018,07,15,06,02,20.40
2018,07,15,06,03,20.40
2018,07,15,06,04,20.40
2018,07,15,06,05,20.30
2018,07,15,06,06,20.30
2018,07,15,06,07,20.40
2018,07,15,06,08,20.40
2018,07,15,06,09,20.40
2018,07,15,06,10,20.40
2018,07,15,06,11,20.40
2018,07,15,06,12,20.40
2018,07,15,06,13,20.40
2018,07,15,06,14,20.30
2018,07,15,06,15,20.30
2018,07,15,06,16,20.20
2018,07,15,06,17,20.10
2018,07,15,06,18,20.10
2018,07,15,06,19,20.10
2018,07,15,06,20,20.00
2018,07,15,06,21,20.00
2018,07,15,06,22,20.00
2018,07,15,06,23,19.90
2018,07,15,06,24,19.90
2018,07,15,06,25,19.90
2018,07,15,06,26,19.90
2018,07,15,06,27,19.90
2018,07,15,06,28,20.00
2018,07,15,06,29,20.00
2018,07,15,06,30,20.10
2018,07,15,06,31,20.20
2018,07,15,06,32,20.30
2018,07,15,06,33,20.40
2018,07,15,06,34,20.40
2018,07,15,06,35,20.50
2018,07,15,06,36,20.60
2018,07,15,06,37,20.60
2018,07,15,06,38,20.70
2018,07,15,06,39,20.80
2018,07,15,06,40,20.80
2018,07,15,06,41,20.90
2018,07,15,06,42,20.90
2018,07,15,06,43,20.90
2018,07,15,06,44,21.00
2018,07,15,06,45,21.00
2018,07,15,06,46,21.00
2018,07,15,06,47,21.10
2018,07,15,06,48,21.10
2018,07,15,06,49,21.10
2018,07,15,06,50,21.10
2018,07,15,06,51,21.00
2018,07,15,06,52,21.00
2018,07,15,06,53,21.00
2018,07,15,06,54,20.90
2018,07,15,06,55,20.90
2018,07,15,06,56,20.80
2018,07,15,06,57,20.80
2018,07,15,06,58,20.90
2018,07,15,06,59,21.00
2018,07,15,07,00,21.00
2018,07,15,07,01,21.10
2018,07,15,07,02,21.20
2018,07,15,07,03,21.30
2018,07,15,07,04,21.30
2018,07,15,07,05,21.40
2018,07,15,07,06,21.50
2018,07,15,07,07,21.50
2018,07,15,07,08,21.60
2018,07,15,07,09,21.60
2018,07,15,07,10,21.70
2018,07,15,07,11,21.70
2018,07,15,07,12,21.80
2018,07,15,07,13,21.80
2018,07,15,07,14,21.90
2018,07,15,07,15,21.90
2018,07,15,07,16,22.00
2018,07,15,07,17,22.00
2018,07,15,07,18,22.10
2018,07,15,07,19,22.10
2018,07,15,07,20,22.20
2018,07,15,07,21,22.20
2018,07,15,07,22,22.30
2018,07,15,07,23,22.30
2018,07,15,07,24,22.40
2018,07,15,07,25,22.50
2018,07,15,07,26,22.50
2018,07,15,07,27,22.60
2018,07,15,07,28,22.70
2018,07,15,07,29,22.80
2018,07,15,07,30,22.80
2018,07,15,07,31,22.80
2018,07,15,07,32,22.90
2018,07,15,07,33,22.90
2018,07,15,07,34,22.90
2018,07,15,07,35,22.90
2018,07,15,07,36,22.90
2018,07,15,07,37,23.00
2018,07,15,07,38,23.00
2018,07,15,07,39,23.00
2018,07,15,07,40,23.10
2018,07,15,07,41,23.10
2018,07,15,07,42,23.10
2018,07,15,07,43,23.10
2018,07,15,07,44,23.20
2018,07,15,07,45,23.20
2018,07,15,07,46,23.20
2018,07,15,07,47,23.20
2018,07,15,07,48,23.30
2018,07,15,07,49,23.30
2018,07,15,07,50,23.30
2018,07,15,07,51,23.40
2018,07,15,07,52,23.40
2018,07,15,07,53,23.40
2018,07,15,07,54,23.40
2018,07,15,07,55,23.40
2018,07,15,07,56,23.50
2018,07,15,07,57,23.50
2018,07,15,07,58,23.60
2018,07,15,07,59,23.60
2018,07,15,08,00,23.70
2018,07,15,08,01,23.70
2018,07,15,08,02,23.80
2018,07,15,08,03,23.80
2018,07,15,08,04,23.80
2018,07,15,08,05,23.80
2018,07,15,08,06,23.80
2018,07,15,08,07,23.80
2018,07,15,08,08,23.80
2018,07,15,08,09,23.90
2018,07,15,08,10,23.90
2018,07,15,08,11,23.90
2018,07,15,08,12,23.90
2018,07,15,08,13,23.90
2018,07,15,08,14,23.90
2018,07,15,08,15,23.90
2018,07,15,08,16,23.90
2018,07,15,08,17,24.00
2018,07,15,08,18,24.00
2018,07,15,08,19,24.00
2018,07,15,08,20,24.10
2018,07,15,08,21,24.10
2018,07,15,08,22,24.10
2018,07,15,08,23,24.20
2018,07,15,08,24,24.20
2018,07,15,08,25,24.30
2018,07,15,08,26,24.30
2018,07,15,08,27,24.30
2018,07,15,08,28,24.30
2018,07,15,08,29,24.20
2018,07,15,08,30,24.20
2018,07,15,08,31,24.20
2018,07,15,08,32,24.20
2018,07,15,08,33,24.20
2018,07,15,08,34,24.30
2018,07,15,08,35,24.30
2018,07,15,08,36,24.30
2018,07,15,08,37,24.30
2018,07,15,08,38,24.30
2018,07,15,08,39,24.30
2018,07,15,08,40,24.30
2018,07,15,08,41,24.30
2018,07,15,08,42,24.30
2018,07,15,08,43,24.30
2018,07,15,08,44,24.30
2018,07,15,08,45,24.40
2018,07,15,08,46,24.40
2018,07,15,08,47,24.40
2018,07,15,08,48,24.40
2018,07,15,08,49,24.40
2018,07,15,08,50,24.40
2018,07,15,08,51,24.40
2018,07,15,08,52,24.40
2018,07,15,08,53,24.40
2018,07,15,08,54,24.40
2018,07,15,08,55,24.30
2018,07,15,08,56,24.30
2018,07,15,08,57,24.30
2018,07,15,08,58,24.30
2018,07,15,08,59,24.30
2018,07,15,09,00,24.40
2018,07,15,09,01,24.40
2018,07,15,09,02,24.50
2018,07,15,09,03,24.50
2018,07,15,09,04,24.50
2018,07,15,09,05,24.60
2018,07,15,09,06,24.60
2018,07,15,09,07,24.60
2018,07,15,09,08,24.70
2018,07,15,09,09,24.70
2018,07,15,09,10,24.70
2018,07,15,09,11,24.70
2018,07,15,09,12,24.80
2018,07,15,09,13,24.80
2018,07,15,09,14,24.90
2018,07,15,09,15,24.90
2018,07,15,09,16,24.90
2018,07,15,09,17,24.90
2018,07,15,09,18,24.90
2018,07,15,09,19,25.00
2018,07,15,09,20,25.00
2018,07,15,09,21,25.00
2018,07,15,09,22,25.00
2018,07,15,09,23,25.00
2018,07,15,09,24,25.00
2018,07,15,09,25,25.10
2018,07,15,09,26,25.10
2018,07,15,09,27,25.10
2018,07,15,09,28,25.10
2018,07,15,09,29,25.10
2018,07,15,09,30,25.10
2018,07,15,09,31,25.00
2018,07,15,09,32,25.00
2018,07,15,09,33,24.90
2018,07,15,09,34,24.90
2018,07,15,09,35,24.90
2018,07,15,09,36,24.90
2018,07,15,09,37,25.00
2018,07,15,09,38,25.00
2018,07,15,09,39,25.10
2018,07,15,09,40,25.10
2018,07,15,09,41,25.10
2018,07,15,09,42,25.10
2018,07,15,09,43,25.10
2018,07,15,09,44,25.10
2018,07,15,09,45,25.10
2018,07,15,09,46,25.20
2018,07,15,09,47,25.20
2018,07,15,09,48,25.10
2018,07,15,09,49,25.10
2018,07,15,09,50,25.10
2018,07,15,09,51,25.20
2018,07,15,09,52,25.20
2018,07,15,09,53,25.30
2018,07,15,09,54,25.30
2018,07,15,09,55,25.30
2018,07,15,09,56,25.30
2018,07,15,09,57,25.30
2018,07,15,09,58,25.40
2018,07,15,09,59,25.50
2018,07,15,10,00,25.60
2018,07,15,10,01,25.60
2018,07,15,10,02,25.60
2018,07,15,10,03,25.50
2018,07,15,10,04,25.50
2018,07,15,10,05,25.60
2018,07,15,10,06,25.60
2018,07,15,10,07,25.70
2018,07,15,10,08,25.80
2018,07,15,10,09,25.90
2018,07,15,10,10,26.00
2018,07,15,10,11,26.00
2018,07,15,10,12,26.10
2018,07,15,10,13,26.10
2018,07,15,10,14,26.10
2018,07,15,10,15,26.10
2018,07,15,10,16,26.10
2018,07,15,10,17,26.20
2018,07,15,10,18,26.30
2018,07,15,10,19,26.30
2018,07,15,10,20,26.30
2018,07,15,10,21,26.30
2018,07,15,10,22,26.40
2018,07,15,10,23,26.40
2018,07,15,10,24,26.40
2018,07,15,10,25,26.40
2018,07,15,10,26,26.40
2018,07,15,10,27,26.30
2018,07,15,10,28,26.30
2018,07,15,10,29,26.30
2018,07,15,10,30,26.40
2018,07,15,10,31,26.50
2018,07,15,10,32,26.60
2018,07,15,10,33,26.70
2018,07,15,10,34,26.70
2018,07,15,10,35,26.70
2018,07,15,10,36,26.70
2018,07,15,10,37,26.70
2018,07,15,10,38,26.70
2018,07,15,10,39,26.70
2018,07,15,10,40,26.70
2018,07,15,10,41,26.60
2018,07,15,10,42,26.60
2018,07,15,10,43,26.60
2018,07,15,10,44,26.60
2018,07,15,10,45,26.70
2018,07,15,10,46,26.80
2018,07,15,10,47,26.80
2018,07,15,10,48,26.80
2018,07,15,10,49,26.90
2018,07,15,10,50,26.90
2018,07,15,10,51,26.90
2018,07,15,10,52,26.90
2018,07,15,10,53,26.90
2018,07,15,10,54,26.90
2018,07,15,10,55,26.90
2018,07,15,10,56,27.00
2018,07,15,10,57,27.00
2018,07,15,10,58,27.10
2018,07,15,10,59,27.20
2018,07,15,11,00,27.20
2018,07,15,11,01,27.20
2018,07,15,11,02,27.20
2018,07,15,11,03,27.10
2018,07,15,11,04,27.10
2018,07,15,11,05,27.00
2018,07,15,11,06,26.90
2018,07,15,11,07,26.90
2018,07,15,11,08,27.00
2018,07,15,11,09,27.20
2018,07,15,11,10,27.30
2018,07,15,11,11,27.30
2018,07,15,11,12,27.30
2018,07,15,11,13,27.30
2018,07,15,11,14,27.30
2018,07,15,11,15,27.30
2018,07,15,11,16,27.30
2018,07,15,11,17,27.30
2018,07,15,11,18,27.30
2018,07,15,11,19,27.30
2018,07,15,11,20,27.30
2018,07,15,11,21,27.30
2018,07,15,11,22,27.40
2018,07,15,11,23,27.50
2018,07,15,11,24,27.50
2018,07,15,11,25,27.60
2018,07,15,11,26,27.60
2018,07,15,11,27,27.60
2018,07,15,11,28,27.60
2018,07,15,11,29,27.70
2018,07,15,11,30,27.70
2018,07,15,11,31,27.70
2018,07,15,11,32,27.70
2018,07,15,11,33,27.70
2018,07,15,11,34,27.70
2018,07,15,11,35,27.80
2018,07,15,11,36,27.80
2018,07,15,11,37,27.90
2018,07,15,11,38,28.00
2018,07,15,11,39,28.10
2018,07,15,11,40,28.20
2018,07,15,11,41,28.20
2018,07,15,11,42,28.30
2018,07,15,11,43,28.30
2018,07,15,11,44,28.40
2018,07,15,11,45,28.40
2018,07,15,11,46,28.40
2018,07,15,11,47,28.30
2018,07,15,11,48,28.30
2018,07,15,11,49,28.20
2018,07,15,11,50,28.20
2018,07,15,11,51,28.20
2018,07,15,11,52,28.20
2018,07,15,11,53,28.20
2018,07,15,11,54,28.30
2018,07,15,11,55,28.30
2018,07,15,11,56,28.40
2018,07,15,11,57,28.50
2018,07,15,11,58,28.50
2018,07,15,11,59,28.50
2018,07,15,12,00,28.60
2018,07,15,12,01,28.60
2018,07,15,12,02,28.60
2018,07,15,12,03,28.60
2018,07,15,12,04,28.60
2018,07,15,12,05,28.60
2018,07,15,12,06,28.70
2018,07,15,12,07,28.80
2018,07,15,12,08,28.80
2018,07,15,12,09,28.80
2018,07,15,12,10,28.80
2018,07,15,12,11,28.80
2018,07,15,12,12,28.80
2018,07,15,12,13,28.80
2018,07,15,12,14,28.70
2018,07,15,12,15,28.70
2018,07,15,12,16,28.80
2018,07,15,12,17,28.80
2018,07,15,12,18,28.80
2018,07,15,12,19,28.80
2018,07,15,12,20,28.70
2018,07,15,12,21,28.70
2018,07,15,12,22,28.70
2018,07,15,12,23,28.70
2018,07,15,12,24,28.70
2018,07,15,12,25,28.80
2018,07,15,12,26,28.90
2018,07,15,12,27,29.00
2018,07,15,12,28,29.00
2018,07,15,12,29,29.00
2018,07,15,12,30,29.00
2018,07,15,12,31,28.90
2018,07,15,12,32,28.90
2018,07,15,12,33,28.80
2018,07,15,12,34,28.80
2018,07,15,12,35,28.80
2018,07,15,12,36,28.80
2018,07,15,12,37,28.80
2018,07,15,12,38,28.80
2018,07,15,12,39,28.80
2018,07,15,12,40,28.80
2018,07,15,12,41,28.80
2018,07,15,12,42,28.90
2018,07,15,12,43,28.90
2018,07,15,12,44,29.00
2018,07,15,12,45,29.10
2018,07,15,12,46,29.10
2018,07,15,12,47,29.10
2018,07,15,12,48,29.10
2018,07,15,12,49,29.10
2018,07,15,12,50,29.20
2018,07,15,12,51,29.30
2018,07,15,12,52,29.40
2018,07,15,12,53,29.40
2018,07,15,12,54,29.40
2018,07,15,12,55,29.30
2018,07,15,12,56,29.30
2018,07,15,12,57,29.30
2018,07,15,12,58,29.20
2018,07,15,12,59,29.20
2018,07,15,13,00,29.20
2018,07,15,13,01,29.20
2018,07,15,13,02,29.30
2018,07,15,13,03,29.30
2018,07,15,13,04,29.30
2018,07,15,13,05,29.30
2018,07,15,13,06,29.30
2018,07,15,13,07,29.40
2018,07,15,13,08,29.40
2018,07,15,13,09,29.40
2018,07,15,13,10,29.50
2018,07,15,13,11,29.50
2018,07,15,13,12,29.40
2018,07,15,13,13,29.50
2018,07,15,13,14,29.50
2018,07,15,13,15,29.60
2018,07,15,13,16,29.60
2018,07,15,13,17,29.60
2018,07,15,13,18,29.60
2018,07,15,13,19,29.50
2018,07,15,13,20,29.50
2018,07,15,13,21,29.50
2018,07,15,13,22,29.50
2018,07,15,13,23,29.50
2018,07,15,13,24,29.60
2018,07,15,13,25,29.70
2018,07,15,13,26,29.80
2018,07,15,13,27,29.80
2018,07,15,13,28,29.80
2018,07,15,13,29,29.80
2018,07,15,13,30,29.80
2018,07,15,13,31,29.80
2018,07,15,13,32,29.70
2018,07,15,13,33,29.70
2018,07,15,13,34,29.80
2018,07,15,13,35,29.80
2018,07,15,13,36,29.80
2018,07,15,13,37,29.80
2018,07,15,13,38,29.70
2018,07,15,13,39,29.70
2018,07,15,13,40,29.60
2018,07,15,13,41,29.60
2018,07,15,13,42,29.60
2018,07,15,13,43,29.80
2018,07,15,13,44,29.80
2018,07,15,13,45,29.90
2018,07,15,13,46,29.90
2018,07,15,13,47,30.00
2018,07,15,13,48,29.90
2018,07,15,13,49,30.00
2018,07,15,13,50,30.00
2018,07,15,13,51,30.10
2018,07,15,13,52,30.10
2018,07,15,13,53,30.20
2018,07,15,13,54,30.30
2018,07,15,13,55,30.30
2018,07,15,13,56,30.30
2018,07,15,13,57,30.30
2018,07,15,13,58,30.30
2018,07,15,13,59,30.30
2018,07,15,14,00,30.30
2018,07,15,14,01,30.30
2018,07,15,14,02,30.40
2018,07,15,14,03,30.40
2018,07,15,14,04,30.40
2018,07,15,14,05,30.40
2018,07,15,14,06,30.40
2018,07,15,14,07,30.40
2018,07,15,14,08,30.30
2018,07,15,14,09,30.30
2018,07,15,14,10,30.30
2018,07,15,14,11,30.40
2018,07,15,14,12,30.40
2018,07,15,14,13,30.50
2018,07,15,14,14,30.60
2018,07,15,14,15,30.70
2018,07,15,14,16,30.80
2018,07,15,14,17,30.80
2018,07,15,14,18,30.70
2018,07,15,14,19,30.80
2018,07,15,14,20,30.80
2018,07,15,14,21,30.90
2018,07,15,14,22,30.90
2018,07,15,14,23,30.90
2018,07,15,14,24,30.90
2018,07,15,14,25,30.80
2018,07,15,14,26,30.80
2018,07,15,14,27,30.80
2018,07,15,14,28,30.80
2018,07,15,14,29,30.80
2018,07,15,14,30,30.80
2018,07,15,14,31,30.80
2018,07,15,14,32,30.90
2018,07,15,14,33,31.00
2018,07,15,14,34,31.10
2018,07,15,14,35,31.00
2018,07,15,14,36,30.90
2018,07,15,14,37,30.90
2018,07,15,14,38,30.80
2018,07,15,14,39,30.80
2018,07,15,14,40,30.70
2018,07,15,14,41,30.70
2018,07,15,14,42,30.70
2018,07,15,14,43,30.80
2018,07,15,14,44,30.90
2018,07,15,14,45,30.90
2018,07,15,14,46,31.00
2018,07,15,14,47,31.10
2018,07,15,14,48,31.10
2018,07,15,14,49,31.20
2018,07,15,14,50,31.20
2018,07,15,14,51,31.20
2018,07,15,14,52,31.20
2018,07,15,14,53,31.20
2018,07,15,14,54,31.20
2018,07,15,14,55,31.10
2018,07,15,14,56,31.20
2018,07,15,14,57,31.20
2018,07,15,14,58,31.10
2018,07,15,14,59,31.20
2018,07,15,15,00,31.20
2018,07,15,15,01,31.30
2018,07,15,15,02,31.30
2018,07,15,15,03,31.30
2018,07,15,15,04,31.30
2018,07,15,15,05,31.40
2018,07,15,15,06,31.40
2018,07,15,15,07,31.50
2018,07,15,15,08,31.50
2018,07,15,15,09,31.60
2018,07,15,15,10,31.70
2018,07,15,15,11,31.80
2018,07,15,15,12,31.90
2018,07,15,15,13,32.00
2018,07,15,15,14,32.10
2018,07,15,15,15,32.20
2018,07,15,15,16,32.10
2018,07,15,15,17,32.00
2018,07,15,15,18,31.90
2018,07,15,15,19,31.80
2018,07,15,15,20,31.70
2018,07,15,15,21,31.70
2018,07,15,15,22,31.80
2018,07,15,15,23,31.80
2018,07,15,15,24,31.80
2018,07,15,15,25,31.90
2018,07,15,15,26,32.00
2018,07,15,15,27,32.00
2018,07,15,15,28,32.00
2018,07,15,15,29,32.00
2018,07,15,15,30,32.00
2018,07,15,15,31,32.10
2018,07,15,15,32,32.00
2018,07,15,15,33,31.90
2018,07,15,15,34,31.80
2018,07,15,15,35,31.80
2018,07,15,15,36,31.80
2018,07,15,15,37,31.80
2018,07,15,15,38,31.80
2018,07,15,15,39,31.90
2018,07,15,15,40,31.90
2018,07,15,15,41,32.00
2018,07,15,15,42,32.00
2018,07,15,15,43,32.00
2018,07,15,15,44,32.10
2018,07,15,15,45,32.00
2018,07,15,15,46,32.00
2018,07,15,15,47,32.10
2018,07,15,15,48,32.20
2018,07,15,15,49,32.20
2018,07,15,15,50,32.30
2018,07,15,15,51,32.30
2018,07,15,15,52,32.20
2018,07,15,15,53,32.10
2018,07,15,15,54,32.10
2018,07,15,15,55,32.00
2018,07,15,15,56,32.00
2018,07,15,15,57,32.10
2018,07,15,15,58,32.10
2018,07,15,15,59,32.20
2018,07,15,16,00,32.20
2018,07,15,16,01,32.30
2018,07,15,16,02,32.40
2018,07,15,16,03,32.40
2018,07,15,16,04,32.40
2018,07,15,16,05,32.30
2018,07,15,16,06,32.40
2018,07,15,16,07,32.50
2018,07,15,16,08,32.60
2018,07,15,16,09,32.60
2018,07,15,16,10,32.60
2018,07,15,16,11,32.70
2018,07,15,16,12,32.70
2018,07,15,16,13,32.70
2018,07,15,16,14,32.70
2018,07,15,16,15,32.70
2018,07,15,16,16,32.60
2018,07,15,16,17,32.60
2018,07,15,16,18,32.60
2018,07,15,16,19,32.50
2018,07,15,16,20,32.40
2018,07,15,16,21,32.40
2018,07,15,16,22,32.40
2018,07,15,16,23,32.30
2018,07,15,16,24,32.20
2018,07,15,16,25,32.20
2018,07,15,16,26,32.20
2018,07,15,16,27,32.30
2018,07,15,16,28,32.30
2018,07,15,16,29,32.30
2018,07,15,16,30,32.20
2018,07,15,16,31,32.20
2018,07,15,16,32,32.20
2018,07,15,16,33,32.10
2018,07,15,16,34,32.00
2018,07,15,16,35,32.00
2018,07,15,16,36,32.00
2018,07,15,16,37,32.00
2018,07,15,16,38,31.90
2018,07,15,16,39,31.90
2018,07,15,16,40,31.90
2018,07,15,16,41,31.90
2018,07,15,16,42,31.80
2018,07,15,16,43,31.80
2018,07,15,16,44,31.70
2018,07,15,16,45,31.60
2018,07,15,16,46,31.60
2018,07,15,16,47,31.50
2018,07,15,16,48,31.50
2018,07,15,16,49,31.50
2018,07,15,16,50,31.50
2018,07,15,16,51,31.50
2018,07,15,16,52,31.50
2018,07,15,16,53,31.50
2018,07,15,16,54,31.50
2018,07,15,16,55,31.40
2018,07,15,16,56,31.40
2018,07,15,16,57,31.50
2018,07,15,16,58,31.50
2018,07,15,16,59,31.60
2018,07,15,17,00,31.50
2018,07,15,17,01,31.40
2018,07,15,17,02,31.40
2018,07,15,17,03,31.40
2018,07,15,17,04,31.50
2018,07,15,17,05,31.50
2018,07,15,17,06,31.60
2018,07,15,17,07,31.60
2018,07,15,17,08,31.60
2018,07,15,17,09,31.60
2018,07,15,17,10,31.60
2018,07,15,17,11,31.50
2018,07,15,17,12,31.60
2018,07,15,17,13,31.50
2018,07,15,17,14,31.50
2018,07,15,17,15,31.60
2018,07,15,17,16,31.60
2018,07,15,17,17,31.70
2018,07,15,17,18,31.70
2018,07,15,17,19,31.70